Miscellaneous Local Product
Issued by NWS Hastings, NE

Home | Current Version | Previous Version | Text Only | Print | Product List | Glossary On
Versions: 1 2 3 4 5 6 7 8 9 10 11 12 13 14 15 16 17 18 19 20 21 22 23 24 25 26 27 28 29 30 31 32 33 34 35 36 37 38 39 40 41 42 43 44 45 46 47 48 49 50
000
AXUS43 KGID 201902
MISGRI

GID CWA HOURLY WEATHER ROUNDUP
NATIONAL WEATHER SERVICE HASTINGS NE
100 PM CST MON NOV 20 2017

NOTE: "FAIR" INDICATES FEW OR NO CLOUDS BELOW 12,000 FEET WITH NO
SIGNIFICANT WEATHER AND/OR OBSTRUCTIONS TO VISIBILITY.

...SOUTH CENTRAL NEBRASKA...

CITY           SKY/WX    TMP DP  RH WIND       PRES   REMARKS
GRAND ISLAND   CLOUDY    60  26  27 SW20      29.63F
KEARNEY        CLOUDY    61  22  22 W13       29.65
HASTINGS       CLOUDY    59  25  27 SW13      29.65F
ORD            CLOUDY    62  19  19 W22       29.57F
YORK           CLOUDY    59  25  27 SW14G21   29.64F
AURORA         CLOUDY    57  27  31 SW15      29.63F
LEXINGTON      CLOUDY    65  19  16 SW13      29.64F
HOLDREGE       SUNNY     62  25  23 SW15      29.67F
HEBRON         CLOUDY    56  24  28 SW13G22   29.70F

...NEBRASKA PANHANDLE...

CITY           SKY/WX    TMP DP  RH WIND       PRES   REMARKS
CHADRON          N/A     62  14  15 W28G40    29.66F
ALLIANCE       CLOUDY    61  13  15 NW25G31   29.68F
SCOTTSBLUFF    CLOUDY    63   9  12 W25G41    29.70F
SIDNEY         CLOUDY    63   5  10 W25G38    29.75S

...WESTERN AND NORTH CENTRAL NEBRASKA...

CITY           SKY/WX    TMP DP  RH WIND       PRES   REMARKS
VALENTINE      CLOUDY    64  16  15 NW18G25   29.56F
AINSWORTH      CLOUDY    60  20  21 W15G22    29.57S
ONEILL         CLOUDY    55  23  29 W12G21    29.55S
BROKEN BOW     CLOUDY    62  18  18 W16G26    29.60F
IMPERIAL       CLOUDY    70   2   7 W23G32    29.71F
NORTH PLATTE   CLOUDY    62  18  18 W15       29.65F
MCCOOK         SUNNY     70  18  13 W15       29.69F

...EASTERN NEBRASKA...

CITY           SKY/WX    TMP DP  RH WIND       PRES   REMARKS
NORFOLK        CLOUDY    55  25  31 SW7       29.56F
SO SIOUX CITY  CLOUDY    51  29  42 SW13      29.58F
TEKAMAH        MOSUNNY   57  26  30 S20       29.60F
COLUMBUS       CLOUDY    54  27  35 SW12      29.61F
ALBION         CLOUDY    60  24  25 SW9       29.57F
OMAHA EPPLEY   CLOUDY    56  26  31 S14       29.62F
OFFUTT AFB     CLOUDY    57  25  29 SW12G18   29.64F
MILLARD        CLOUDY    57  28  33 S9G17     29.64S
LINCOLN        CLOUDY    58  24  27 SW20      29.65F
NEBRASKA CITY  MOSUNNY   60  29  30 SW23G32   29.67F
BEATRICE       CLOUDY    59  27  29 SW23      29.68F
FALLS CITY     SUNNY     61  25  25 S24G32    29.71F

...NORTHERN KANSAS...

CITY           SKY/WX    TMP DP  RH WIND       PRES   REMARKS
GOODLAND       CLOUDY    70   5   8 W15       29.75F
HILL CITY      SUNNY     72  14  11 SW15G25   29.72F
NORTON         CLEAR     73   1   6 SW20G25   29.67F
PHILLIPSBURG   SUNNY     66  19  16 S9        29.70F
SMITH CENTER   SUNNY     57  25  28 SW7       29.72F
HAYS           SUNNY     65  25  22 SW12      29.73F
RUSSELL        SUNNY     61  25  25 S20       29.71F
CONCORDIA      CLOUDY    56  23  27 SW14      29.73F
SALINA         CLOUDY    62  24  23 S28       29.75F
TOPEKA         SUNNY     63  26  24 SW15G31   29.78F



USA.gov is the U.S. government's official web portal to all federal, state and local government web resources and services.